Home   Weather   Rosario   Past weeks
Flag for Argentina

Past Weather in Rosario, Santa Fe, Argentina — Yesterday and Last 2 Weeks

Now
61 °F

Overcast.


Feels Like: 61 °F
Forecast: 59 / 53 °F
Wind: 5 mph from Southeast

Location: Sauce Viejo Aerodrome

Current Time: Oct 20, 2019 at 6:07:15 am

Latest Report: Oct 20, 2019 at 5:00 am


Visibility: 7 mi

Pressure: 30.03 "Hg

Humidity: 82%

Dew Point: 55 °F

Location of RosarioLocation

Past Weather in Rosario — Graph

°F

Rosario Temperature Yesterday

Maximum temperature yesterday: 76 °F (at 2:00 pm)
Minimum temperature yesterday: 50 °F (at 5:00 am)
Average temperature yesterday: 64 °F

High & Low Weather Summary for the Past Weeks

 TemperatureHumidityPressure
High98 °F (Oct 11, 3:00 pm)98% (Oct 17, 6:00 am)30.36 "Hg (Oct 17, 6:00 am)
Low44 °F (Oct 6, 5:00 am)28% (Oct 6, 4:00 pm)29.44 "Hg (Oct 12, 5:00 pm)
Average66 °F72%30.01 "Hg
* Reported Oct 5 6:00 am — Oct 20 4:00 am, Rosario. Weather by CustomWeather, © 2019

Note: Actual official high and low records may vary slightly from our data, if they occured in-between our weather recording intervals... More about our weather records

Advertising

Rosario Weather History for the Previous 24 Hours

Scroll right to see more
 ConditionsComfort  
Time TempWeatherWind HumidityBarometerVisibility
4:00 am
Sun, Oct 20
61 °FLight rain. Overcast.5 mph77%30.06 "Hg4 mi
3:00 am61 °FOvercast.2 mph73%30.06 "Hg7 mi
2:00 am62 °FOvercast.3 mph73%30.08 "Hg7 mi
1:00 am62 °FOvercast.3 mph70%30.09 "Hg7 mi
12:00 am62 °FOvercast.5 mph71%30.09 "Hg7 mi
11:00 pm
Sat, Oct 19
64 °FOvercast.5 mph63%30.10 "Hg7 mi
10:00 pm65 °FPassing clouds.6 mph62%30.09 "Hg7 mi
9:00 pm65 °FOvercast.6 mph57%30.09 "Hg7 mi
8:00 pm66 °FOvercast.6 mph53%30.09 "Hg7 mi
7:00 pm69 °FOvercast.6 mph49%30.09 "Hg7 mi
6:00 pm73 °FOvercast.6 mph42%30.09 "Hg7 mi
5:00 pm75 °FOvercast.9 mph39%30.10 "Hg7 mi
4:00 pm76 °FPartly sunny.9 mph38%30.13 "Hg7 mi
3:00 pm76 °FScattered clouds.8 mph37%30.16 "Hg7 mi
2:00 pm76 °FScattered clouds.8 mph37%30.18 "Hg7 mi
1:00 pm76 °FPassing clouds.9 mph39%30.36 "Hg7 mi
12:00 pm75 °FScattered clouds.8 mph44%30.23 "Hg7 mi
11:00 am72 °FScattered clouds.10 mph49%30.25 "Hg7 mi
10:00 am69 °FScattered clouds.9 mph54%30.25 "Hg7 mi
9:00 am66 °FPartly sunny.7 mph69%30.25 "Hg7 mi
8:00 am62 °FPartly sunny.3 mph73%30.24 "Hg7 mi
7:00 am50 °FFog.2 mph96%30.23 "Hg4 mi
6:00 am50 °FFog.2 mph95%30.22 "Hg4 mi
Weather by CustomWeather, © 2019

See weather overview